リニア-ニート彗星

193P/LINEAR-NEAT (2001)

English version
Home page
Updated on October 27, 2007

---------------------------------------------------------------------

・ プロフィール

符号 193P/2001 Q5
発見日 2001年8月17日, 8月28日
発見光度 17.3等
発見者 Lincoln Laboratory Near-Earth Asteroid Research project, Near-Earth-Asteroid Tracking Team (Jet Propulsion Laboratory)

・ 軌道要素

                    Epoch = 2001 June 20.0 TT
     T = 2001 June 11.6210 TT         Peri. =   6.3996
     e = 0.416559                     Node  = 336.2663  2000.0
     q = 2.043148 AU                  Incl. =  10.9448
       a =  3.501896 AU    n = 0.1504005    P =   6.553 years

・ 星図

・ 光度変化

        m1 = 12.5 + 5 logΔ + 10.0 log r

---------------------------------------------------------------------

軌道要素は、IAUC 8885に掲載されたものです。
星図は StellaNavigator Ver.2.0 for Windows (アストロアーツ 編著 / アスキー出版局刊) で作成したものです。
光度グラフはComet for Windowsで作成したものです。

---------------------------------------------------------------------

Copyright(C) Seiichi Yoshida (comet@aerith.net). All rights reserved.